Hourly Data Report for June 18, 2021

TOBERMORY RCS
ONTARIO
Current Station Operator: ECCC - MSC

45°14'00.000" N
81°38'00.000" W
213.50 m
6128330
71767
TTR

Download Data

Hourly Data (June 2021)
Hourly Data Report for June 18, 2021
TIME
LST
Temp Definition
°C
Dew Point Definition
°C
Rel Hum Definition
%
Precip. Amount Definition
mm

Wind Dir Definition
10's deg

Wind Spd Definition
km/h
Visibility Definition
km
Stn Press Definition
kPa
Hmdx Definition


Wind Chill Definition


Weather Definition


00:00 16.2 10.9 71 0.0 19 14   98.40     LegendNANA
01:00 15.7 11.2 74 0.0 17 10   98.36     LegendNANA
02:00 15.8 12.2 79 0.0 16 13   98.26     LegendNANA
03:00 15.6 12.0 79 0.0 17 11   98.24     LegendNANA
04:00 16.9 11.5 71 0.0 18 14   98.19     LegendNANA
05:00 16.5 11.4 72 0.0 21 12   98.16     LegendNANA
06:00 17.4 16.1 92 0.3 27 20   98.22     LegendNANA
07:00 15.8 14.8 94 2.8 25 5   98.24     LegendNANA
08:00 16.0 14.6 91 0.2 14 6   98.14     LegendNANA
09:00 15.6 13.6 88 0.0 17 10   98.15     LegendNANA
10:00 16.5 13.6 83 0.0 17 15   98.13     LegendNANA
11:00 16.8 13.8 83 0.0 19 12   98.04     LegendNANA
12:00 16.6 14.4 87 0.0 21 16   98.00     LegendNANA
13:00 15.8 13.8 88 0.0 21 16   97.99     LegendNANA
14:00 16.0 14.7 92 0.0 19 14   97.94     LegendNANA
15:00 16.6 14.9 90 0.0 20 14   97.93     LegendNANA
16:00 17.4 15.1 86 0.0 21 16   97.92     LegendNANA
17:00 18.4 15.1 82 0.0 20 12   97.85     LegendNANA
18:00 18.9 15.9 83 0.0 24 14   97.89     LegendNANA
19:00 18.5 15.3 82 0.0 22 6   97.91     LegendNANA
20:00 16.2 14.3 88 0.0 24 5   97.95     LegendNANA
21:00 13.7 13.0 95 0.0 21 2   97.97     LegendNANA
22:00 12.5 12.0 96 0.0 17 2   98.00     LegendNANA
23:00 12.4 12.0 97 0.0 17 2   98.04     LegendNANA

Notes on Data Quality.

Legend

  • E = Estimated
  • M = Missing
  • NA = Not Available*
  • [empty] = Indicates an unobserved value
Date modified: